Location: Cartignies
(50.0929°N, 3.8447°E)
Time: 13:57:19
(UTC+00:00)

SAR-Lupe-4 - Pass Details

Date: 12 January 2026
Orbit: 480 x 483 km, 98.1° (Epoch: 10 January)

Event Time Altitude Azimuth Distance (km) Brightness Sun altitude
Rises 16:58:09 0° 143° (SE) 2,536 7.1 -8.1°
Reaches altitude 10° 17:00:18 10° 135° (SE) 1,662 6.1 -8.4°
Maximum altitude 17:03:35 35° 68° (ENE) 800 4.1 -8.9°
Drops below altitude 10° 17:06:53 10° 2° (N) 1,676 6.1 -9.4°
Sets 17:09:03 0° 353° (N) 2,562 7.1 -9.7°
